[[{"header":{"parameterUnit":"m.s-1","parameterCategory":2,"la1":30.2991,"la2":30.254,"lo1":-89.0895,"lo2":-89.0444,"dy":0.0017,"dx":0.0017,"nx":28,"ny":28,"refTime":"2025-01-19T03:00:00:Z","depth":"0","parameterNumber":2,"parameterNumberName":"U-component_of_CURRENTS"},"data":[0,0,0,0,0,0,0,0,0,0,0,0,0,0,0,0,0,0,0,0,0,0,0,0,0,0,0,0,0,0,0,0,0,0,0,0,0,0,0,0,0,0,0,0,0,0,0,0,0,0,0,0,0,0,0,0,0,0,0.3437,0.3438,0,0.3404,0.3402,0.3401,0.3257,0.3255,0.3254,0.3252,0.3228,0.3229,0.323,0,0,0,0,0,0,0,0,0,0,0,0,0,0.3293,0.3295,0.3437,0.3438,0.344,0.3404,0.3402,0.34,0.3258,0.3255,0.3253,0.3251,0.3227,0.3229,0.323,0,0,0,0,0,0,0,0,0,0,0,0,0,0.3302,0.3296,0.3437,0.3376,0.3371,0.3405,0.3402,0.34,0.3258,0.3255,0.3252,0.325,0.3227,0.3228,0.323,0.3296,0,0,0.3235,0.3236,0,0,0,0,0,0,0,0,0.3302,0.3305,0.3384,0.338,0.3375,0.3346,0.3343,0.3371,0.3259,0.3284,0.3252,0.3249,0.3281,0.3278,0.3254,0.3295,0.3294,0.3235,0.3236,0.3237,0.3237,0,0,0,0,0,0,0,0.3301,0.3306,0.3408,0.3386,0.3381,0.3323,0.3319,0.3346,0.3286,0.3281,0.3275,0.3298,0.3276,0.3253,0.3253,0.3293,0.3235,0.3237,0.3238,0.3238,0.3406,0.3409,0,0,0,0,0,0,0.3346,0.3306,0.3409,0.3408,0.3349,0.3329,0.3325,0.3345,0.3285,0.3278,0.3301,0.3292,0.3252,0.3252,0.3252,0.3335,0.3237,0.3238,0.3239,0.3403,0.3407,0.3411,0,0,0,0,0,0,0.3343,0.3356,0.3411,0.3369,0.3374,0.3337,0.3359,0.3346,0.3327,0.3303,0.3291,0.3296,0.325,0.325,0.3293,0.3333,0.3239,0.3241,0.3399,0.3404,0.3409,0.3497,0,0,0,0,0,0,0.3339,0.3354,0.3374,0.3372,0.3379,0.3431,0.3363,0.3348,0.3353,0.334,0.3297,0.329,0.3247,0.3291,0.3295,0.3333,0.3242,0.3394,0.3401,0.3407,0.349,0.3505,0.3517,0,0,0,0,0,0.3334,0.3349,0.3375,0.3387,0.341,0.3434,0.3429,0.3382,0.3356,0.3351,0.334,0.3292,0.3335,0.3296,0.3299,0.3339,0.3391,0.3399,0.3407,0.3484,0.3502,0.3517,0,0,0,0,0,0,0.3257,0.334,0.3365,0.3396,0.3431,0.3416,0.3408,0.3405,0.3389,0.3378,0.3341,0.3336,0.3384,0.3371,0.3329,0.3412,0.3355,0.3364,0.3413,0.343,0.3443,0.344,0.3243,0,0,0,0,0,0.3275,0.3325,0.3384,0.341,0.3434,0.3437,0.3442,0.343,0.343,0.3415,0.3402,0.3402,0.3423,0.3432,0.3438,0.3498,0.3495,0.3528,0.3542,0.3554,0.3558,0.3606,0.3623,0.3436,0.3436,0.3436,0,0,0.3256,0.3308,0.3334,0.3404,0.3415,0.3459,0.3425,0.3446,0.3485,0.3427,0.3457,0.3452,0.3452,0.3497,0.3519,0.3488,0.3611,0.3564,0.3573,0.357,0.3616,0.3633,0.3649,0.3442,0.3441,0.344,0,0,0.3246,0.3293,0.3339,0.338,0.3446,0.3467,0.3491,0.3514,0.3519,0.3577,0.3546,0.3574,0.3601,0.3603,0.3612,0.3723,0.3683,0.3729,0.3793,0.3841,0.3855,0.3868,0.39,0.3915,0.3735,0.3736,0.3736,0,0.3225,0.3288,0.3348,0.3399,0.343,0.3485,0.3523,0.3564,0.3599,0.3622,0.3598,0.3653,0.365,0.3717,0.3745,0.3751,0.3765,0.3721,0.3856,0.3868,0.388,0.3909,0.3925,0.3741,0.374,0.374,0.3739,0,0.3263,0.3306,0.3326,0.3432,0.3474,0.351,0.3601,0.3649,0.368,0.3712,0.3782,0.3789,0.3808,0.3831,0.3819,0.3911,0.3891,0.3864,0.3803,0.3903,0.3929,0.3943,0.3748,0.3746,0.3745,0.3743,0,0,0.3241,0.3338,0.3348,0.3384,0.349,0.3526,0.3626,0.3717,0.3776,0.383,0.3885,0.3945,0.3938,0.3951,0.3952,0.4004,0.4103,0.3975,0.3975,0.3989,0.4206,0.4112,0.4118,0.4098,0.4101,0.4103,0.4193,0,0.3253,0.3326,0.3386,0.3454,0.3491,0.3573,0.3658,0.3752,0.3826,0.3901,0.3953,0.4004,0.3995,0.4003,0.4061,0.4091,0.4144,0.4081,0.4122,0.4123,0.4013,0.4133,0.4113,0.4185,0.4207,0.4209,0.4211,0,0.3282,0.3325,0.3375,0.3458,0.3485,0.3543,0.3669,0.3751,0.3889,0.3943,0.4015,0.4051,0.4147,0.4112,0.4232,0.4192,0.421,0.4232,0.4235,0.4122,0.4056,0.4089,0.4209,0.4238,0.4232,0.423,0.4229,0,0.3238,0.3319,0.3349,0.3378,0.3491,0.3532,0.3605,0.3744,0.3818,0.3963,0.4005,0.413,0.4163,0.4245,0.4289,0.4273,0.4399,0.4373,0.431,0.4303,0.428,0.4265,0.4413,0.4454,0.4454,0.4454,0.4453,0,0.3234,0.3252,0.3324,0.3347,0.3396,0.3487,0.3568,0.3673,0.3803,0.3875,0.4002,0.4072,0.4197,0.4274,0.4326,0.4363,0.4428,0.4346,0.4332,0.4311,0.4298,0.431,0.4299,0.4457,0.4456,0.4455,0.4455,0,0.3164,0.3221,0.3242,0.3336,0.3371,0.3397,0.3527,0.358,0.3724,0.3817,0.3858,0.4039,0.4144,0.4244,0.4367,0.4373,0.4362,0.4421,0.4378,0.4355,0.4297,0.429,0.4137,0.3994,0.4392,0.4391,0.4389,0,0.3133,0.3138,0.3202,0.3211,0.3244,0.3307,0.335,0.3519,0.3584,0.3787,0.3815,0.3958,0.4052,0.4209,0.4284,0.4372,0.4283,0.4357,0.4315,0.4315,0.4299,0.4085,0.396,0.4341,0.434,0.4338,0.4337,0,0.3042,0.3051,0.3059,0.3083,0.3115,0.3156,0.324,0.3299,0.348,0.3587,0.3722,0.3821,0.3991,0.4103,0.4203,0.4255,0.4228,0.4325,0.437,0.431,0.4047,0.3895,0.4248,0.4325,0.4327,0.4327,0.4328,0.4329,0.2926,0.2902,0.2907,0.2915,0.2951,0.2973,0.299,0.3117,0.3224,0.3403,0.3563,0.3732,0.4002,0.4163,0.4144,0.4227,0.4082,0.4245,0.4251,0.4043,0.3853,0.4149,0.4162,0.4163,0.4163,0.4163,0.4163,0,0.2743,0.2744,0.2746,0.2746,0.2725,0.2803,0.2878,0.2911,0.3005,0.3283,0.343,0.377,0.3955,0.4134,0.4346,0.4275,0.4022,0.4207,0.4004,0.3889,0.4263,0.4215,0.4185,0.4185,0.4185,0.4185,0.4185,0.4185,0.2648,0.2577,0.2587,0.2507,0.2519,0.2498,0.2517,0.262,0.2822,0.3094,0.3352,0.3586,0.4087,0.452,0.459,0.4445,0.4147,0.3966,0.3845,0.4302,0.4308,0.4314,0.4272,0.4255,0.4255,0.3358,0.3353,0.3349]},{"header":{"parameterUnit":"m.s-1","parameterCategory":2,"la1":30.2991,"la2":30.254,"lo1":-89.0895,"lo2":-89.0444,"dy":0.0017,"dx":0.0017,"nx":28,"ny":28,"refTime":"2025-01-19T03:00:00:Z","depth":"0","parameterNumber":3,"parameterNumberName":"V-component_of_CURRENTS"},"data":[0,0,0,0,0,0,0,0,0,0,0,0,0,0,0,0,0,0,0,0,0,0,0,0,0,0,0,0,0,0,0,0,0,0,0,0,0,0,0,0,0,0,0,0,0,0,0,0,0,0,0,0,0,0,0,0,0,0,-0.0683,-0.0685,0,-0.0707,-0.0706,-0.0705,-0.0652,-0.0651,-0.0651,-0.0651,-0.08,-0.0804,-0.0808,0,0,0,0,0,0,0,0,0,0,0,0,0,-0.0612,-0.0612,-0.0683,-0.0685,-0.0686,-0.0707,-0.0706,-0.0705,-0.0652,-0.0651,-0.0651,-0.065,-0.0798,-0.0803,-0.0809,0,0,0,0,0,0,0,0,0,0,0,0,0,-0.0626,-0.0612,-0.0683,-0.0673,-0.0673,-0.0707,-0.0706,-0.0705,-0.0652,-0.0651,-0.0651,-0.065,-0.0797,-0.0803,-0.0809,-0.0861,0,0,-0.0829,-0.0832,0,0,0,0,0,0,0,0,-0.0625,-0.0627,-0.0673,-0.0674,-0.0675,-0.0689,-0.0737,-0.0768,-0.0652,-0.0645,-0.0651,-0.065,-0.0784,-0.0792,-0.0775,-0.0868,-0.0874,-0.083,-0.0834,-0.0836,-0.0838,0,0,0,0,0,0,0,-0.0624,-0.0626,-0.0678,-0.0675,-0.0676,-0.0676,-0.0675,-0.074,-0.0708,-0.0645,-0.0645,-0.0671,-0.0783,-0.0768,-0.0779,-0.0876,-0.0829,-0.0835,-0.0839,-0.0842,-0.0967,-0.0967,0,0,0,0,0,0,-0.0651,-0.0625,-0.0677,-0.068,-0.0665,-0.0679,-0.0677,-0.0673,-0.0705,-0.0712,-0.0672,-0.0669,-0.0757,-0.0771,-0.0784,-0.0798,-0.0836,-0.0842,-0.0846,-0.0968,-0.0967,-0.0966,0,0,0,0,0,0,-0.0648,-0.0653,-0.0677,-0.0666,-0.0671,-0.0682,-0.0676,-0.0674,-0.0665,-0.0726,-0.0733,-0.0668,-0.0758,-0.0775,-0.083,-0.0806,-0.0845,-0.0851,-0.0968,-0.0967,-0.0967,-0.0859,0,0,0,0,0,0,-0.0645,-0.0651,-0.0639,-0.0667,-0.0673,-0.0683,-0.0678,-0.0675,-0.0689,-0.0685,-0.0727,-0.0738,-0.0758,-0.0819,-0.0836,-0.0816,-0.0856,-0.0969,-0.0968,-0.0967,-0.0864,-0.0855,-0.0848,0,0,0,0,0,-0.0642,-0.0609,-0.0637,-0.0644,-0.066,-0.0684,-0.0684,-0.0681,-0.069,-0.0672,-0.0705,-0.0737,-0.0824,-0.0825,-0.0844,-0.0825,-0.097,-0.0968,-0.0967,-0.0867,-0.0857,-0.0848,0,0,0,0,0,0,-0.0536,-0.0605,-0.0634,-0.0615,-0.0655,-0.068,-0.0661,-0.069,-0.0698,-0.0694,-0.0748,-0.0762,-0.0791,-0.0837,-0.0837,-0.0857,-0.0897,-0.0899,-0.0814,-0.0805,-0.0797,-0.0758,-0.0862,0,0,0,0,0,-0.0526,-0.0534,-0.0601,-0.0585,-0.0604,-0.0644,-0.0652,-0.0665,-0.0694,-0.0693,-0.0738,-0.0776,-0.08,-0.0826,-0.0858,-0.0895,-0.0924,-0.0891,-0.0883,-0.0875,-0.0857,-0.0878,-0.0869,-0.0962,-0.0962,-0.0962,0,0,-0.0486,-0.0524,-0.0527,-0.0569,-0.0589,-0.0578,-0.064,-0.0649,-0.0636,-0.0718,-0.0706,-0.0759,-0.0804,-0.0812,-0.0831,-0.0851,-0.0866,-0.0874,-0.0867,-0.0852,-0.0875,-0.0866,-0.0858,-0.0961,-0.0962,-0.0962,0,0,-0.0397,-0.044,-0.0415,-0.0443,-0.0498,-0.0529,-0.0542,-0.059,-0.06,-0.0631,-0.0663,-0.0702,-0.0767,-0.0769,-0.0784,-0.0765,-0.0821,-0.0788,-0.072,-0.074,-0.0732,-0.0726,-0.0752,-0.0748,-0.0785,-0.0785,-0.0785,0,-0.0352,-0.0326,-0.0408,-0.0384,-0.0389,-0.0505,-0.0463,-0.0494,-0.0555,-0.0566,-0.0611,-0.0674,-0.0726,-0.0714,-0.0698,-0.0742,-0.0774,-0.0749,-0.0727,-0.0721,-0.0716,-0.0745,-0.0742,-0.0779,-0.078,-0.0781,-0.0781,0,-0.025,-0.0226,-0.0209,-0.0223,-0.0232,-0.0229,-0.03,-0.0328,-0.0389,-0.0428,-0.0464,-0.0543,-0.0571,-0.0602,-0.0647,-0.0634,-0.0675,-0.0711,-0.0745,-0.07,-0.0734,-0.0733,-0.0772,-0.0774,-0.0775,-0.0777,0,0,-0.0168,-0.0147,-0.0139,-0.0112,-0.0154,-0.0153,-0.0145,-0.0176,-0.0164,-0.0264,-0.0248,-0.0322,-0.0396,-0.0418,-0.0495,-0.0532,-0.0535,-0.0608,-0.0611,-0.062,-0.059,-0.0604,-0.0605,-0.0576,-0.0575,-0.0575,-0.0628,0,-0.0072,0.0017,0.0003,0.0088,0.0121,0.0043,0.0066,0.0024,-0.0037,-0.0061,-0.0178,-0.0195,-0.0317,-0.0336,-0.0392,-0.05,-0.0529,-0.0518,-0.0644,-0.0647,-0.0653,-0.0602,-0.0605,-0.0652,-0.0628,-0.0628,-0.0628,0,0.0013,0.0069,0.018,0.023,0.024,0.0275,0.0278,0.0283,0.0216,0.0172,0.0107,0.0005,-0.0073,-0.0182,-0.0336,-0.033,-0.0439,-0.0535,-0.054,-0.0584,-0.0658,-0.0695,-0.0652,-0.0901,-0.0627,-0.0627,-0.0627,0,0.0082,0.0176,0.027,0.0289,0.0339,0.0375,0.0383,0.0355,0.0369,0.0319,0.0315,0.0192,0.0133,-0.0026,-0.0253,-0.0288,-0.0426,-0.0491,-0.06,-0.0604,-0.0644,-0.0651,-0.0841,-0.0564,-0.0564,-0.0564,-0.0564,0,0.0156,0.024,0.0311,0.0366,0.0471,0.0475,0.0562,0.0541,0.0542,0.0576,0.0439,0.0431,0.0166,0.0031,-0.0178,-0.0385,-0.0362,-0.0567,-0.0607,-0.0608,-0.0611,-0.0862,-0.1032,-0.0566,-0.0566,-0.0565,-0.0565,0,0.023,0.0265,0.0385,0.0477,0.0507,0.0582,0.0663,0.0718,0.0708,0.0748,0.0738,0.0611,0.0441,0.0175,-0.0074,-0.0266,-0.0622,-0.054,-0.0529,-0.0566,-0.0901,-0.1065,-0.1296,-0.1432,-0.0662,-0.0662,-0.0663,0,0.0279,0.0352,0.0474,0.0538,0.0591,0.0696,0.0762,0.0788,0.0853,0.0856,0.0883,0.0747,0.0665,0.0298,-0.0058,-0.0385,-0.0644,-0.0593,-0.0652,-0.09,-0.1113,-0.1223,-0.1329,-0.0675,-0.0675,-0.0676,-0.0676,0,0.0395,0.0431,0.0522,0.0653,0.074,0.0855,0.0953,0.1027,0.1061,0.1101,0.1135,0.1081,0.0728,0.041,-0.0034,-0.0293,-0.0798,-0.0609,-0.0871,-0.1132,-0.1261,-0.1415,-0.0673,-0.0679,-0.0679,-0.0679,-0.0678,-0.0678,0.0477,0.0544,0.0641,0.0766,0.0865,0.0999,0.1113,0.1218,0.1333,0.1429,0.1349,0.135,0.0861,0.0257,-0.0138,-0.0818,-0.085,-0.1018,-0.1193,-0.1276,-0.142,-0.0678,-0.0727,-0.0727,-0.0727,-0.0727,-0.0727,0,0.0565,0.0629,0.0748,0.0885,0.1011,0.1053,0.1231,0.1365,0.1524,0.1621,0.1663,0.1453,0.0828,0.0184,-0.072,-0.1259,-0.1495,-0.1586,-0.1768,-0.1847,-0.1182,-0.1194,-0.134,-0.134,-0.1339,-0.1339,-0.1339,-0.1339,0.0603,0.0713,0.0765,0.0975,0.1089,0.1278,0.1393,0.1591,0.173,0.1908,0.1947,0.1911,0.1442,-0.0299,-0.1486,-0.1815,-0.2272,-0.2376,-0.2586,-0.2164,-0.2124,-0.2087,-0.2136,-0.2477,-0.2478,-0.3165,-0.3173,-0.3178]}],[{"header":{"parameterUnit":"m.s-1","parameterCategory":2,"la1":30.2991,"la2":30.254,"lo1":-89.0895,"lo2":-89.0444,"dy":0.0017,"dx":0.0017,"nx":28,"ny":28,"refTime":"2025-01-19T03:00:00:Z","depth":"2","parameterNumber":2,"parameterNumberName":"U-component_of_CURRENTS"},"data":[0,0,0,0,0,0,0,0,0,0,0,0,0,0,0,0,0,0,0,0,0,0,0,0,0,0,0,0,0,0,0,0,0,0,0,0,0,0,0,0,0,0,0,0,0,0,0,0,0,0,0,0,0,0,0,0,0,0,0.3321,0.3321,0,0.3272,0.327,0.3268,0.313,0.3129,0.3127,0.3126,0.3123,0.3124,0.3126,0,0,0,0,0,0,0,0,0,0,0,0,0,0.3101,0.3106,0.3321,0.3322,0.3322,0.3272,0.327,0.3268,0.313,0.3129,0.3127,0.3125,0.3123,0.3124,0.3126,0,0,0,0,0,0,0,0,0,0,0,0,0,0.3125,0.3108,0.3321,0.3259,0.3254,0.3273,0.327,0.3267,0.3131,0.3128,0.3126,0.3124,0.3122,0.3124,0.3126,0.3186,0,0,0.3133,0.3133,0,0,0,0,0,0,0,0,0.3124,0.3131,0.3267,0.3264,0.3259,0.3219,0.3193,0.3248,0.3131,0.3161,0.3126,0.3123,0.3172,0.3169,0.3142,0.3186,0.3186,0.3133,0.3134,0.3135,0.3135,0,0,0,0,0,0,0,0.3123,0.3131,0.3285,0.3269,0.3264,0.3169,0.317,0.32,0.3169,0.3158,0.3152,0.3173,0.3167,0.314,0.3142,0.3186,0.3133,0.3135,0.3136,0.3137,0.3316,0.3319,0,0,0,0,0,0,0.3175,0.3132,0.3287,0.3286,0.3202,0.3177,0.3177,0.3221,0.3167,0.3161,0.3175,0.3167,0.3138,0.3139,0.3141,0.3242,0.3135,0.3137,0.3138,0.3313,0.3317,0.3321,0,0,0,0,0,0,0.317,0.319,0.3289,0.3217,0.3226,0.3187,0.3235,0.3222,0.3208,0.3182,0.3172,0.3178,0.3136,0.3138,0.3178,0.324,0.3138,0.314,0.3308,0.3314,0.3319,0.3425,0,0,0,0,0,0,0.3164,0.3189,0.3221,0.3223,0.3233,0.3308,0.3238,0.3223,0.3231,0.322,0.3183,0.3178,0.3134,0.3175,0.318,0.3241,0.3141,0.3304,0.3311,0.3317,0.3417,0.3433,0.3447,0,0,0,0,0,0.3157,0.3195,0.3223,0.3242,0.3285,0.3312,0.3305,0.3256,0.3235,0.3232,0.3215,0.318,0.3221,0.318,0.3185,0.3248,0.3301,0.3309,0.3317,0.341,0.343,0.3447,0,0,0,0,0,0,0.3104,0.3187,0.3216,0.3278,0.3312,0.3294,0.3287,0.3285,0.3266,0.3254,0.322,0.3216,0.3275,0.3261,0.3216,0.3323,0.3259,0.3269,0.3329,0.3348,0.3362,0.3353,0.3143,0,0,0,0,0,0.3127,0.3181,0.3245,0.3296,0.3318,0.332,0.3323,0.331,0.3308,0.3293,0.3289,0.3291,0.3314,0.3327,0.3336,0.3401,0.3392,0.345,0.3465,0.3477,0.3477,0.3523,0.3541,0.3347,0.3347,0.3346,0,0,0.312,0.3178,0.3206,0.329,0.3301,0.3347,0.3309,0.3331,0.3375,0.3307,0.3351,0.3347,0.3345,0.3398,0.3426,0.3391,0.3535,0.3487,0.3498,0.349,0.3533,0.3551,0.3568,0.3352,0.3351,0.335,0,0,0.313,0.3194,0.324,0.3279,0.334,0.3359,0.3388,0.3413,0.342,0.3481,0.3448,0.3479,0.3518,0.3518,0.3527,0.3646,0.3613,0.3666,0.3733,0.3779,0.3794,0.3807,0.3837,0.3852,0.3672,0.3672,0.3673,0,0.3119,0.3199,0.325,0.3304,0.3333,0.3384,0.3425,0.3468,0.3506,0.3527,0.351,0.3572,0.3573,0.364,0.3672,0.3679,0.3691,0.3657,0.3796,0.3808,0.382,0.3847,0.3862,0.3678,0.3678,0.3677,0.3677,0,0.317,0.3225,0.3249,0.3353,0.3395,0.3432,0.3522,0.3576,0.3612,0.3642,0.3719,0.3722,0.3743,0.3777,0.3758,0.3858,0.3836,0.3807,0.374,0.3846,0.3868,0.3882,0.3687,0.3685,0.3683,0.3682,0,0,0.3164,0.3262,0.3274,0.3308,0.3415,0.3452,0.356,0.3651,0.3712,0.3775,0.3832,0.3899,0.3889,0.3901,0.3901,0.3953,0.4057,0.3923,0.3923,0.3937,0.4156,0.4056,0.4061,0.4053,0.4056,0.4058,0.4143,0,0.3183,0.3261,0.3319,0.3395,0.3433,0.3512,0.3605,0.3698,0.3772,0.3852,0.3901,0.3954,0.3948,0.3955,0.4015,0.4044,0.4096,0.4036,0.4065,0.4066,0.3951,0.4075,0.3749,0.3789,0.4156,0.4158,0.416,0,0.3205,0.326,0.3315,0.34,0.3427,0.3491,0.3616,0.3701,0.3839,0.3892,0.3962,0.3997,0.4094,0.4062,0.418,0.4143,0.416,0.4182,0.4185,0.4057,0.3991,0.3743,0.38,0.4182,0.418,0.4178,0.4177,0,0.3153,0.3246,0.328,0.3312,0.3437,0.348,0.3555,0.3694,0.3766,0.3908,0.3949,0.4073,0.4106,0.4188,0.4234,0.422,0.4343,0.4318,0.4248,0.424,0.3948,0.391,0.4396,0.4396,0.4396,0.4396,0.4395,0,0.313,0.3169,0.3253,0.3284,0.3342,0.3432,0.3513,0.362,0.3748,0.3816,0.3943,0.401,0.4139,0.4215,0.4269,0.4301,0.4369,0.4281,0.4266,0.3979,0.3944,0.426,0.4244,0.4399,0.4398,0.4397,0.4397,0,0.3055,0.3121,0.3163,0.3274,0.3312,0.3344,0.3475,0.3525,0.3667,0.3756,0.3797,0.3976,0.4078,0.418,0.4303,0.4307,0.437,0.435,0.4,0.3943,0.4234,0.4222,0.4314,0.4311,0.4309,0.4307,0.4306,0,0.3028,0.3036,0.3122,0.3137,0.3183,0.3252,0.3295,0.3465,0.3526,0.3723,0.375,0.389,0.3972,0.4125,0.4142,0.4212,0.4304,0.3952,0.387,0.4255,0.4231,0.4223,0.4214,0.3535,0.3527,0.3521,0.3516,0,0.2955,0.2969,0.2988,0.3015,0.3053,0.31,0.3184,0.3244,0.3421,0.3515,0.3642,0.3729,0.3844,0.378,0.3852,0.3856,0.3926,0.3827,0.4322,0.3606,0.3527,0.3502,0.3518,0.3459,0.3465,0.3469,0.3472,0.3475,0.2861,0.2839,0.2838,0.2852,0.2893,0.2916,0.2935,0.3011,0.3101,0.3177,0.3398,0.3393,0.3489,0.342,0.338,0.3348,0.3621,0.3506,0.3522,0.3547,0.3442,0.3363,0.3244,0.3248,0.3252,0.3255,0.3258,0,0.2674,0.2679,0.268,0.2686,0.2653,0.2744,0.2822,0.2761,0.2779,0.2887,0.2955,0.2763,0.2769,0.2855,0.2727,0.2804,0.2751,0.2709,0.2607,0.2666,0.2718,0.2567,0.214,0.2136,0.2133,0.213,0,0,0.2583,0.2509,0.2513,0.2426,0.2443,0.2347,0.2369,0.2302,0.2329,0.2273,0.2275,0.2499,0.271,0.2323,0.2353,0.2212,0.2397,0.2127,0.3028,0.2959,0.3005,0.3195,0.3032,0,0,0,0,0]},{"header":{"parameterUnit":"m.s-1","parameterCategory":2,"la1":30.2991,"la2":30.254,"lo1":-89.0895,"lo2":-89.0444,"dy":0.0017,"dx":0.0017,"nx":28,"ny":28,"refTime":"2025-01-19T03:00:00:Z","depth":"2","parameterNumber":3,"parameterNumberName":"V-component_of_CURRENTS"},"data":[0,0,0,0,0,0,0,0,0,0,0,0,0,0,0,0,0,0,0,0,0,0,0,0,0,0,0,0,0,0,0,0,0,0,0,0,0,0,0,0,0,0,0,0,0,0,0,0,0,0,0,0,0,0,0,0,0,0,-0.0507,-0.0508,0,-0.0526,-0.0525,-0.0525,-0.05,-0.05,-0.05,-0.05,-0.0661,-0.0665,-0.0669,0,0,0,0,0,0,0,0,0,0,0,0,0,-0.0366,-0.0369,-0.0507,-0.0509,-0.051,-0.0526,-0.0525,-0.0524,-0.05,-0.05,-0.05,-0.05,-0.066,-0.0665,-0.067,0,0,0,0,0,0,0,0,0,0,0,0,0,-0.04,-0.0369,-0.0507,-0.0508,-0.0509,-0.0526,-0.0525,-0.0524,-0.0499,-0.05,-0.05,-0.05,-0.0658,-0.0664,-0.067,-0.0704,0,0,-0.0689,-0.0692,0,0,0,0,0,0,0,0,-0.0398,-0.0404,-0.0506,-0.0508,-0.0509,-0.0521,-0.0535,-0.0596,-0.0499,-0.0491,-0.05,-0.05,-0.0635,-0.0643,-0.0627,-0.0712,-0.0719,-0.069,-0.0694,-0.0696,-0.0698,0,0,0,0,0,0,0,-0.0396,-0.0403,-0.0503,-0.0508,-0.051,-0.0479,-0.0484,-0.0544,-0.0555,-0.0492,-0.0493,-0.0513,-0.0635,-0.0621,-0.0632,-0.0721,-0.069,-0.0695,-0.0699,-0.0702,-0.0826,-0.0825,0,0,0,0,0,0,-0.0421,-0.0401,-0.0503,-0.0505,-0.0466,-0.0483,-0.0487,-0.0507,-0.0552,-0.0561,-0.0513,-0.0512,-0.061,-0.0624,-0.0638,-0.0669,-0.0696,-0.0702,-0.0706,-0.0826,-0.0826,-0.0825,0,0,0,0,0,0,-0.0418,-0.043,-0.0502,-0.0462,-0.0471,-0.0487,-0.0508,-0.0508,-0.051,-0.0568,-0.0577,-0.0519,-0.0611,-0.0629,-0.0673,-0.0676,-0.0705,-0.0711,-0.0827,-0.0826,-0.0826,-0.0741,0,0,0,0,0,0,-0.0414,-0.0428,-0.0426,-0.0464,-0.0474,-0.0508,-0.051,-0.0509,-0.0527,-0.0526,-0.0577,-0.059,-0.0613,-0.0663,-0.0679,-0.0685,-0.0715,-0.0827,-0.0827,-0.0826,-0.0745,-0.0738,-0.0732,0,0,0,0,0,-0.0408,-0.04,-0.0425,-0.0437,-0.0479,-0.0509,-0.0508,-0.0513,-0.0527,-0.0516,-0.0543,-0.0589,-0.067,-0.0667,-0.0687,-0.0695,-0.0828,-0.0827,-0.0826,-0.0747,-0.0739,-0.0732,0,0,0,0,0,0,-0.0338,-0.0399,-0.0427,-0.0439,-0.0478,-0.0509,-0.0495,-0.0524,-0.0532,-0.0527,-0.0587,-0.0601,-0.064,-0.0681,-0.0678,-0.0726,-0.0757,-0.076,-0.0691,-0.0684,-0.0678,-0.0635,-0.0721,0,0,0,0,0,-0.0328,-0.0334,-0.0404,-0.0413,-0.0432,-0.0473,-0.0481,-0.0493,-0.0522,-0.0524,-0.0582,-0.0623,-0.0648,-0.0676,-0.0711,-0.0749,-0.0772,-0.0766,-0.076,-0.0754,-0.0731,-0.0753,-0.0746,-0.0822,-0.0822,-0.0822,0,0,-0.0302,-0.0341,-0.0342,-0.0398,-0.0421,-0.0416,-0.0473,-0.0485,-0.0476,-0.0547,-0.056,-0.0613,-0.0653,-0.0671,-0.0694,-0.071,-0.0747,-0.0753,-0.0747,-0.0727,-0.0751,-0.0744,-0.0737,-0.0821,-0.0822,-0.0822,0,0,-0.0241,-0.0295,-0.0269,-0.0294,-0.034,-0.0371,-0.0386,-0.0441,-0.0457,-0.0487,-0.0522,-0.0564,-0.064,-0.0646,-0.066,-0.0648,-0.0713,-0.0686,-0.0624,-0.0646,-0.0639,-0.0633,-0.0659,-0.0657,-0.0683,-0.0683,-0.0683,0,-0.0206,-0.0195,-0.0265,-0.0246,-0.0249,-0.0355,-0.0318,-0.0353,-0.0417,-0.0426,-0.048,-0.0554,-0.061,-0.0598,-0.059,-0.0632,-0.0662,-0.0647,-0.0635,-0.063,-0.0626,-0.0654,-0.0652,-0.0679,-0.0679,-0.068,-0.068,0,-0.0124,-0.011,-0.0102,-0.0113,-0.0122,-0.012,-0.0186,-0.0221,-0.0287,-0.0323,-0.0367,-0.0443,-0.0477,-0.052,-0.0553,-0.0553,-0.059,-0.0623,-0.0649,-0.0613,-0.0645,-0.0645,-0.0673,-0.0674,-0.0676,-0.0677,0,0,-0.0061,-0.0044,-0.0038,-0.0009,-0.005,-0.0051,-0.0054,-0.0082,-0.0072,-0.0182,-0.0174,-0.0255,-0.0325,-0.0345,-0.0419,-0.0458,-0.0471,-0.053,-0.0533,-0.0545,-0.0529,-0.0541,-0.0543,-0.0512,-0.0512,-0.0511,-0.0566,0,0.0022,0.01,0.0088,0.0162,0.0191,0.0122,0.0133,0.0099,0.0037,0.0004,-0.0105,-0.0129,-0.025,-0.027,-0.0329,-0.0434,-0.0466,-0.0454,-0.0571,-0.0574,-0.058,-0.0541,-0.05,-0.0544,-0.0566,-0.0566,-0.0566,0,0.0117,0.015,0.025,0.03,0.0308,0.0336,0.034,0.0342,0.0275,0.0231,0.0166,0.0067,-0.0012,-0.0121,-0.0275,-0.027,-0.0379,-0.0475,-0.0479,-0.0514,-0.0584,-0.0584,-0.0543,-0.0566,-0.0566,-0.0566,-0.0566,0,0.0195,0.0272,0.0356,0.0371,0.0401,0.0435,0.044,0.0412,0.0427,0.0377,0.0371,0.025,0.019,0.003,-0.0196,-0.0231,-0.037,-0.0434,-0.0542,-0.0546,-0.0541,-0.0544,-0.0509,-0.0509,-0.0509,-0.0509,-0.0509,0,0.0286,0.0346,0.04,0.0436,0.0533,0.0535,0.0619,0.0597,0.0597,0.0631,0.0494,0.0485,0.0221,0.0085,-0.0123,-0.0329,-0.0308,-0.051,-0.055,-0.0513,-0.0513,-0.0557,-0.0562,-0.0511,-0.0511,-0.051,-0.051,0,0.0365,0.0388,0.0481,0.0545,0.0572,0.0641,0.0718,0.0772,0.0761,0.0801,0.0789,0.0662,0.049,0.0226,-0.0024,-0.0213,-0.0416,-0.0487,-0.0431,-0.0463,-0.0598,-0.0598,-0.0606,-0.0606,-0.0607,-0.0607,-0.0608,0,0.0407,0.0473,0.0569,0.0624,0.0656,0.0754,0.0819,0.0841,0.0905,0.0907,0.0933,0.0795,0.0709,0.0343,-0.0,-0.0323,-0.0393,-0.0494,-0.0546,-0.0564,-0.0602,-0.0601,-0.0601,-0.0517,-0.0517,-0.0516,-0.0516,0,0.049,0.0527,0.0597,0.0723,0.0804,0.0912,0.1006,0.1079,0.1111,0.1148,0.1177,0.112,0.0776,0.0464,0.0026,-0.0203,-0.0445,-0.0497,-0.0511,-0.0497,-0.0484,-0.0521,-0.0522,-0.0513,-0.0514,-0.0514,-0.0514,-0.0514,0.0549,0.0612,0.071,0.0829,0.0923,0.1054,0.1164,0.1265,0.1374,0.1442,0.1367,0.1297,0.0939,0.0393,0.0006,-0.0409,-0.0408,-0.0558,-0.0557,-0.0557,-0.0534,-0.0523,-0.0556,-0.0557,-0.0557,-0.0557,-0.0558,0,0.0636,0.0693,0.081,0.0941,0.1069,0.1106,0.128,0.1406,0.1555,0.1573,0.1592,0.1277,0.0907,0.0478,-0.0116,-0.0467,-0.0508,-0.0592,-0.0561,-0.0561,-0.0561,-0.0539,-0.0562,-0.0563,-0.0564,-0.0565,0,0,0.0669,0.0776,0.083,0.1035,0.1145,0.1352,0.1465,0.1623,0.1701,0.1763,0.1699,0.1561,0.1044,0.062,0.0132,-0.0214,-0.0311,-0.029,-0.0247,-0.0152,-0.0148,-0.05,-0.0459,0,0,0,0,0]}],[{"header":{"parameterUnit":"m.s-1","parameterCategory":2,"la1":30.2991,"la2":30.254,"lo1":-89.0895,"lo2":-89.0444,"dy":0.0017,"dx":0.0017,"nx":28,"ny":28,"refTime":"2025-01-19T03:00:00:Z","depth":"4","parameterNumber":2,"parameterNumberName":"U-component_of_CURRENTS"},"data":[0,0,0,0,0,0,0,0,0,0,0,0,0,0,0,0,0,0,0,0,0,0,0,0,0,0,0,0,0,0,0,0,0,0,0,0,0,0,0,0,0,0,0,0,0,0,0,0,0,0,0,0,0,0,0,0,0,0,0.1065,0.1066,0,0.1279,0.1282,0.1286,0.1502,0.1504,0.1506,0.1507,0.1528,0.1527,0.1526,0,0,0,0,0,0,0,0,0,0,0,0,0,0.1026,0.1025,0.1065,0.1066,0.1068,0.1278,0.1282,0.1287,0.1502,0.1504,0.1506,0.1508,0.1529,0.1528,0.1526,0,0,0,0,0,0,0,0,0,0,0,0,0,0.1133,0.1025,0.1064,0.1191,0.1203,0.1277,0.1283,0.1288,0.1501,0.1504,0.1507,0.1509,0.1529,0.1528,0.1526,0.1465,0,0,0.1521,0.1521,0,0,0,0,0,0,0,0,0.1126,0.1136,0.1171,0.1182,0.1196,0.1355,0.1276,0.1333,0.1501,0.1402,0.1507,0.151,0.1442,0.1448,0.1504,0.1466,0.1467,0.1521,0.152,0.152,0.1519,0,0,0,0,0,0,0,0.1118,0.1129,0.1163,0.1172,0.1187,0.1299,0.1317,0.1291,0.1411,0.1411,0.1424,0.1426,0.145,0.1505,0.1505,0.1467,0.1521,0.152,0.1519,0.1518,0.1682,0.1687,0,0,0,0,0,0,0.1053,0.112,0.1156,0.1168,0.1152,0.1295,0.1316,0.1312,0.1416,0.1433,0.1423,0.1435,0.1506,0.1507,0.1506,0.1613,0.152,0.1518,0.1517,0.1677,0.1683,0.1689,0,0,0,0,0,0,0.1051,0.1054,0.1147,0.114,0.1158,0.1291,0.1286,0.1314,0.1387,0.1426,0.1442,0.1466,0.1509,0.1508,0.1542,0.1608,0.1518,0.1516,0.167,0.1678,0.1686,0.1713,0,0,0,0,0,0,0.1049,0.1052,0.1059,0.1134,0.1155,0.1224,0.1283,0.1316,0.1377,0.1395,0.1465,0.1471,0.1511,0.1545,0.154,0.1604,0.1515,0.1664,0.1674,0.1683,0.1705,0.1721,0.1734,0,0,0,0,0,0.1047,0.1092,0.1058,0.1064,0.1149,0.1224,0.1249,0.1361,0.1375,0.1431,0.1484,0.147,0.1608,0.1544,0.1539,0.1604,0.1659,0.1671,0.1682,0.1699,0.1718,0.1733,0,0,0,0,0,0,0.1122,0.1117,0.1084,0.113,0.116,0.1257,0.1348,0.1348,0.1437,0.1464,0.148,0.1491,0.1574,0.1578,0.1508,0.1699,0.1652,0.1663,0.1667,0.1684,0.1698,0.1845,0.1514,0,0,0,0,0,0.1108,0.1121,0.1123,0.1159,0.1188,0.1239,0.1287,0.1328,0.1393,0.1441,0.1503,0.157,0.1616,0.1634,0.1704,0.1734,0.1771,0.1802,0.1816,0.1827,0.1955,0.1981,0.2008,0.1728,0.1727,0.1727,0,0,0.1131,0.1141,0.1141,0.117,0.123,0.1274,0.1286,0.1371,0.1415,0.1413,0.1562,0.1609,0.1641,0.1747,0.1783,0.1749,0.1924,0.1842,0.185,0.1976,0.1996,0.2023,0.2046,0.1736,0.1734,0.1733,0,0,0.1208,0.1211,0.1242,0.127,0.1317,0.1342,0.1342,0.1437,0.1515,0.16,0.1635,0.1743,0.181,0.1892,0.1911,0.2034,0.2002,0.2036,0.2204,0.2221,0.2244,0.2264,0.231,0.2335,0.2032,0.2032,0.2032,0,0.1243,0.1266,0.1272,0.1323,0.1368,0.1354,0.141,0.1464,0.1562,0.1643,0.1678,0.19,0.1917,0.2016,0.2125,0.2069,0.2077,0.21,0.2234,0.2255,0.2276,0.2318,0.2345,0.2035,0.2034,0.2034,0.2034,0,0.1288,0.1351,0.141,0.143,0.1474,0.1544,0.1566,0.1646,0.1722,0.1796,0.1986,0.2072,0.2221,0.2227,0.2229,0.2383,0.2339,0.2234,0.2167,0.2304,0.2341,0.2368,0.2039,0.2038,0.2037,0.2036,0,0,0.1274,0.1408,0.1429,0.1486,0.1544,0.1585,0.1671,0.1768,0.1853,0.2018,0.2183,0.2359,0.2454,0.25,0.2491,0.2563,0.2698,0.25,0.2499,0.2515,0.2763,0.2492,0.2494,0.2566,0.2572,0.2576,0.2714,0,0.132,0.1432,0.1489,0.1611,0.1678,0.1731,0.182,0.1899,0.2009,0.2172,0.2306,0.2473,0.2512,0.2601,0.2686,0.2689,0.2781,0.2676,0.2668,0.2673,0.2382,0.2521,0.2595,0.2734,0.274,0.2745,0.2748,0,0.1333,0.141,0.1545,0.1727,0.1769,0.1839,0.1986,0.2064,0.2234,0.2338,0.2532,0.2634,0.2836,0.2814,0.2984,0.2898,0.2921,0.2922,0.2921,0.2713,0.2453,0.2588,0.2796,0.2793,0.2789,0.2786,0.2783,0,0.1284,0.1471,0.1589,0.1638,0.1807,0.1917,0.2003,0.2153,0.2241,0.2457,0.2555,0.2785,0.2878,0.2996,0.305,0.3035,0.3165,0.3083,0.2882,0.2861,0.3043,0.3021,0.3255,0.3254,0.3254,0.3254,0.3253,0,0.1297,0.1412,0.1596,0.1654,0.1801,0.1934,0.2104,0.2201,0.2373,0.2478,0.2658,0.2762,0.2932,0.3005,0.3089,0.305,0.3176,0.3014,0.2902,0.3048,0.3025,0.3059,0.3034,0.3259,0.3258,0.3257,0.3256,0,0.1255,0.1377,0.1531,0.1733,0.1796,0.1902,0.2106,0.2198,0.2366,0.2492,0.2576,0.2755,0.2867,0.2962,0.3089,0.3015,0.3049,0.299,0.318,0.3058,0.276,0.2737,0.2884,0.2876,0.2869,0.2864,0.2859,0,0.1239,0.1316,0.1537,0.1593,0.171,0.187,0.1953,0.2156,0.2231,0.2468,0.25,0.2678,0.2779,0.2738,0.2865,0.2945,0.2904,0.289,0.2901,0.2859,0.2735,0.2722,0.2708,0.2848,0.2846,0.2845,0.2843,0,0.1199,0.1313,0.1418,0.1522,0.1636,0.1744,0.1891,0.1929,0.2149,0.2303,0.2389,0.2484,0.2541,0.2638,0.2625,0.2701,0.2898,0.2821,0.2838,0.285,0.2817,0.2697,0.2692,0.282,0.2823,0.2825,0.2827,0,0.1175,0.1218,0.135,0.1447,0.155,0.1609,0.1703,0.1802,0.1911,0.2157,0.2183,0.2363,0.2511,0.251,0.2548,0.2536,0.2575,0.2515,0.2549,0.2576,0.2404,0.2312,0.214,0,0,0,0,0,0.1129,0.1166,0.1236,0.134,0.1433,0.1497,0.1646,0.1741,0.1937,0.1929,0.2057,0.2134,0.2214,0.2316,0.226,0.2458,0.2582,0.2382,0.253,0.2691,0.2718,0.2539,0,0,0,0,0,0,0.1102,0.1171,0.1208,0.1239,0.1266,0.1359,0.1448,0.1574,0.159,0.1787,0.1839,0.1988,0.2094,0.2211,0.2211,0.2238,0.2285,0.2494,0.2488,0.2676,0.27,0.2722,0.2547,0,0,0,0,0]},{"header":{"parameterUnit":"m.s-1","parameterCategory":2,"la1":30.2991,"la2":30.254,"lo1":-89.0895,"lo2":-89.0444,"dy":0.0017,"dx":0.0017,"nx":28,"ny":28,"refTime":"2025-01-19T03:00:00:Z","depth":"4","parameterNumber":3,"parameterNumberName":"V-component_of_CURRENTS"},"data":[0,0,0,0,0,0,0,0,0,0,0,0,0,0,0,0,0,0,0,0,0,0,0,0,0,0,0,0,0,0,0,0,0,0,0,0,0,0,0,0,0,0,0,0,0,0,0,0,0,0,0,0,0,0,0,0,0,0,0.0623,0.0624,0,0.0523,0.0519,0.0516,0.0328,0.0327,0.0325,0.0324,0.0311,0.0312,0.0313,0,0,0,0,0,0,0,0,0,0,0,0,0,0.053,0.0531,0.0622,0.0624,0.0625,0.0523,0.0519,0.0515,0.0328,0.0326,0.0325,0.0324,0.0311,0.0312,0.0313,0,0,0,0,0,0,0,0,0,0,0,0,0,0.0489,0.0532,0.0622,0.0539,0.0532,0.0524,0.0519,0.0514,0.0328,0.0326,0.0325,0.0323,0.0311,0.0312,0.0313,0.0357,0,0,0.0317,0.0317,0,0,0,0,0,0,0,0,0.0492,0.049,0.055,0.0545,0.0538,0.0459,0.0483,0.0475,0.0329,0.0378,0.0324,0.0322,0.0388,0.0382,0.0328,0.0357,0.0356,0.0317,0.0318,0.0318,0.0318,0,0,0,0,0,0,0,0.0495,0.0493,0.0556,0.0552,0.0545,0.0467,0.0457,0.0477,0.0375,0.0373,0.0366,0.0397,0.0381,0.0327,0.0328,0.0356,0.0317,0.0318,0.0319,0.0319,0.0308,0.0307,0,0,0,0,0,0,0.057,0.0496,0.056,0.0556,0.054,0.0472,0.046,0.0464,0.0373,0.0364,0.0399,0.039,0.0326,0.0326,0.0327,0.0351,0.0318,0.0319,0.032,0.0309,0.0308,0.0306,0,0,0,0,0,0,0.0567,0.0575,0.0564,0.0546,0.0542,0.048,0.0484,0.0464,0.0422,0.0397,0.0383,0.0383,0.0325,0.0325,0.0323,0.0351,0.032,0.0321,0.031,0.0308,0.0307,0.0416,0,0,0,0,0,0,0.0564,0.0574,0.0588,0.0551,0.0547,0.0546,0.0488,0.0464,0.0457,0.0442,0.038,0.0374,0.0323,0.0322,0.0325,0.0352,0.0322,0.0311,0.0309,0.0307,0.0414,0.0419,0.0423,0,0,0,0,0,0.0561,0.0574,0.0588,0.0598,0.0573,0.0549,0.0535,0.0467,0.0459,0.0423,0.0384,0.0376,0.031,0.0323,0.0326,0.0355,0.0312,0.031,0.0308,0.0412,0.0418,0.0423,0,0,0,0,0,0,0.0522,0.0559,0.0572,0.0592,0.0584,0.0527,0.0505,0.0494,0.0431,0.043,0.0386,0.0377,0.0373,0.0349,0.0364,0.0334,0.0303,0.0301,0.0381,0.0386,0.0391,0.033,0.0323,0,0,0,0,0,0.0544,0.0574,0.0583,0.0607,0.0599,0.0568,0.0557,0.053,0.0494,0.046,0.0431,0.0393,0.0365,0.0366,0.0324,0.0349,0.0282,0.0354,0.0359,0.0363,0.0309,0.0239,0.0233,0.0299,0.0299,0.0299,0,0,0.0548,0.0576,0.0594,0.0606,0.0581,0.0569,0.0544,0.0539,0.054,0.0485,0.0455,0.0419,0.0369,0.0351,0.035,0.0343,0.0317,0.036,0.0366,0.0307,0.0236,0.023,0.0225,0.0297,0.0298,0.0298,0,0,0.0562,0.0582,0.0599,0.0583,0.06,0.0588,0.0607,0.0573,0.055,0.0552,0.0495,0.0454,0.0446,0.0375,0.0353,0.0364,0.0336,0.0386,0.0381,0.0318,0.0312,0.0305,0.0255,0.0243,0.0399,0.0399,0.0399,0,0.0567,0.0588,0.0597,0.0586,0.0587,0.0608,0.0602,0.059,0.0568,0.0562,0.0552,0.0459,0.0432,0.0383,0.0362,0.0374,0.0343,0.0384,0.0326,0.0318,0.0309,0.0259,0.0244,0.0404,0.0404,0.0403,0.0403,0,0.0567,0.0581,0.0578,0.0589,0.0584,0.0584,0.0597,0.0606,0.0624,0.0603,0.0566,0.0493,0.0423,0.0429,0.0402,0.0341,0.0342,0.0342,0.0324,0.031,0.0257,0.0241,0.0411,0.041,0.0408,0.0407,0,0,0.0596,0.0585,0.0589,0.0597,0.0586,0.0597,0.0613,0.0622,0.0639,0.0604,0.0579,0.0499,0.0453,0.0414,0.0384,0.0322,0.026,0.0316,0.0311,0.0283,0.0139,0.0165,0.0149,0.028,0.0277,0.0274,0.0142,0,0.0597,0.06,0.059,0.0606,0.0602,0.0609,0.062,0.0636,0.0641,0.0622,0.0554,0.0511,0.0461,0.0442,0.0365,0.0285,0.0213,0.0295,0.0135,0.0128,0.0168,0.0128,0.0263,0.0129,0.0125,0.0123,0.012,0,0.0606,0.061,0.0617,0.0633,0.063,0.0648,0.0682,0.0689,0.0666,0.0657,0.0583,0.0535,0.0426,0.0397,0.0209,0.028,0.0188,0.012,0.0115,0.0068,0.012,0.0128,0.0089,0.0091,0.0094,0.0096,0.0098,0,0.0652,0.0646,0.0673,0.0661,0.0664,0.069,0.0707,0.07,0.072,0.0672,0.0665,0.053,0.0479,0.0329,0.0188,0.0205,-0.001,0.0005,-0.0074,-0.0071,-0.0099,-0.0092,-0.0168,-0.0168,-0.0167,-0.0167,-0.0167,0,0.0666,0.069,0.0707,0.0709,0.0759,0.0735,0.0782,0.0781,0.0762,0.0769,0.0678,0.0648,0.0461,0.0338,0.0188,0.0008,-0.0013,-0.0121,-0.0122,-0.0043,-0.0029,-0.0108,-0.0099,-0.0172,-0.0171,-0.017,-0.0169,0,0.0701,0.0712,0.0742,0.0758,0.0784,0.0817,0.0858,0.0874,0.0853,0.0856,0.0846,0.0736,0.0576,0.0387,0.0151,0.003,-0.0152,-0.0213,-0.0115,-0.01,-0.0175,-0.0159,-0.0333,-0.0333,-0.0334,-0.0334,-0.0335,0,0.0711,0.0731,0.0786,0.0825,0.0839,0.0891,0.0925,0.093,0.0947,0.0913,0.0914,0.0781,0.0686,0.0373,0.0163,-0.013,-0.0169,-0.0268,-0.0261,-0.0218,-0.0201,-0.0185,-0.0169,-0.0336,-0.0336,-0.0336,-0.0336,0,0.0708,0.0745,0.0768,0.0849,0.0912,0.0972,0.1024,0.1056,0.1049,0.1035,0.0974,0.0815,0.0634,0.0388,0.0168,-0.0044,-0.0208,-0.0275,-0.0275,-0.027,-0.0223,-0.0202,-0.0186,-0.0338,-0.0337,-0.0337,-0.0337,0,0.0715,0.0738,0.0791,0.0866,0.0948,0.1025,0.1057,0.1078,0.1101,0.1066,0.1045,0.0847,0.0732,0.0432,0.0228,0.0025,-0.0037,-0.0111,-0.0122,-0.0122,-0.002,0.0074,0.0014,0,0,0,0,0,0.0696,0.0738,0.08,0.0894,0.0972,0.1035,0.1105,0.1124,0.1141,0.1107,0.1082,0.0916,0.0612,0.0482,0.0282,0.0201,-0.008,-0.0043,-0.0172,-0.0348,-0.0345,-0.0259,0,0,0,0,0,0,0.0696,0.0755,0.079,0.09,0.0974,0.1072,0.1127,0.1141,0.1129,0.1111,0.0958,0.0868,0.0579,0.0736,0.0283,0.0219,0.0108,-0.0186,-0.019,-0.0349,-0.0347,-0.0345,-0.0256,0,0,0,0,0]}]]